Regional Weather Roundup
Issued by NWS Cleveland, OH

Home | Current Version | Previous Version | Text Only | Print | Product List | Glossary On
Versions: 1 2 3 4 5 6 7 8 9 10 11 12 13 14 15 16 17 18 19 20 21 22 23 24 25 26 27 28 29 30 31 32 33 34 35 36 37 38 39 40 41 42 43 44 45 46 47 48 49 50
000
ASUS41 KCLE 231712
RWRCLE
OHIO REGIONAL WEATHER ROUNDUP
NATIONAL WEATHER SERVICE WILMINGTON, OH
100 PM EDT SAT JUL 23 2016

NOTE: "FAIR" INDICATES FEW OR NO CLOUDS BELOW 12,000 FEET WITH NO
SIGNIFICANT WEATHER AND/OR OBSTRUCTIONS TO VISIBILITY.

OHZ001>008-015>018-024>027-034-035-043-044-231800-
   NORTHWEST OHIO

CITY           SKY/WX    TMP DP  RH WIND       PRES   REMARKS
DEFIANCE       FAIR      88  70  55 VRB5      30.02R HX  93
FINDLAY        CLOUDY    87  70  56 W10       30.01R HX  92
TOLEDO EXPRESS FAIR      88  70  55 CALM      30.01R HX  93
TOLEDO EXEC    FAIR      90  69  50 MISG      30.00R HX  94
LIMA           PTSUNNY   85  73  67 W6        30.03R HX  91
$$

OHZ009>014-019>023-028>033-038-089-231800-
   NORTHEAST OHIO

CITY           SKY/WX    TMP DP  RH WIND       PRES   REMARKS
CLE-HOPKINS    FAIR      90  66  45 W5        30.00F HX  92
CLE-LAKEFRONT  FAIR      82  75  79 NW6       29.98S
CUY CO. ARPT   MOSUNNY   88  73  62 NW9       30.00F HX  96
LORAIN-ELYRIA  FAIR      89  72  56 MISG      30.00S HX  96
ASHTABULA      FAIR      87  63  44 NW9       30.00S
AKRON-CANTON   PTSUNNY   89  68  49 NW8       30.00F HX  93
WOOSTER        FAIR      86  72  62 NW6       30.01F HX  92
MANSFIELD      FAIR      89  71  55 VRB5      30.02F HX  95
YOUNGSTOWN     FAIR      88  57  34 CALM      30.01F
$$

OHZ042-051>053-060>062-070>072-077>081-231800-
  SOUTHWEST OHIO

CITY           SKY/WX    TMP DP  RH WIND       PRES   REMARKS
CINC-COVINGTON FAIR      88  72  58 CALM      30.02F HX  94
CINC-LUNKEN    FAIR      88  75  65 S9        30.00F HX  97
HAMILTON       PTSUNNY   90  73  57 W8        30.02F HX  98
DAYTON         PTSUNNY   84  71  65 W7        30.04S
WRIGHT-PAT AFB MOSUNNY   87  75  67 SW3       30.02S HX  96
DAYTON GENERAL PTSUNNY   87  71  58 SW8       30.02F HX  93
WILMINGTON     FAIR      87  72  60 SW7       30.02F HX  93
$$

OHZ036-037-039>041-045>050-054>059-063>069-073>076-082>088-231800-
  CENTRAL AND SOUTHEAST OHIO

CITY           SKY/WX    TMP DP  RH WIND       PRES   REMARKS
COLUMBUS       FAIR      86  70  58 W8        30.01S HX  90
OSU AIRPORT    FAIR      87  71  58 VRB7      30.01F HX  93
BOLTON FIELD   MOSUNNY   86  73  66 SW6       30.03S HX  93
RICKENBACK AFB PTSUNNY   85  74  68 W5        30.01S HX  93
NEWARK         FAIR      88  72  58 S8        30.01S HX  94
MARION         CLOUDY    85  70  60 CALM      30.02S
LANCASTER      PTSUNNY   87  73  62 VRB5      30.01F HX  94
ZANESVILLE     FAIR      92  70  48 W3        30.01F HX  97
NEW PHILLY     FAIR      91  69  48 CALM      29.99F HX  96
$$




USA.gov is the U.S. government's official web portal to all federal, state and local government web resources and services.